2019-090T00:01:27.779,   1, 180,   1,   120,   4,          0,     41.948,  99289.098,    66.206,    -9.781,     1.183,   344.217, 2, 5.486E-04, -1.00,   2,  4.308E-03,  8.011E-05,  2.819E-13,  1.646E-14,  4.084E+02,  2.385E+01, 255
2019-090T00:03:27.780,   1, 180,   1,   120,   4,          0,     41.948,  99289.098,    66.198,    -9.780,     1.183,   343.008, 2, 5.486E-04, -1.00,   2,  4.109E-03,  7.894E-05,  2.836E-13,  1.620E-14,  4.308E+02,  2.461E+01, 255
2019-090T00:05:27.782,   1, 180,   1,   120,   4,          0,     41.948,  99289.098,    66.190,    -9.778,     1.183,   341.798, 2, 5.486E-04, -1.00,   2,  4.335E-03,  8.101E-05,  2.676E-13,  1.600E-14,  3.853E+02,  2.303E+01, 255
2019-090T00:07:27.783,   1, 180,   1,   120,   4,          0,     41.948,  99289.098,    66.182,    -9.777,     1.183,   340.589, 2, 5.486E-04, -1.00,   2,  4.186E-03,  8.197E-05,  2.711E-13,  1.638E-14,  4.043E+02,  2.443E+01, 255
2019-090T00:09:27.785,   1, 180,   1,   120,   4,          0,     41.948,  99289.098,    66.174,    -9.776,     1.183,   339.380, 2, 5.486E-04, -1.00,   2,  4.427E-03,  8.081E-05,  3.498E-13,  1.621E-14,  4.932E+02,  2.286E+01, 255
2019-090T00:11:27.786,   1, 180,   1,   120,   4,          0,     41.948,  99289.098,    66.167,    -9.775,     1.183,   338.170, 2, 5.486E-04, -1.00,   2,  4.165E-03,  8.051E-05,  2.779E-13,  1.669E-14,  4.164E+02,  2.501E+01, 255
2019-090T00:13:27.787,   1, 180,   1,   120,   4,          0,     41.948,  99289.098,    66.159,    -9.773,     1.183,   336.961, 2, 5.486E-04, -1.00,   2,  3.972E-03,  7.902E-05,  2.236E-13,  1.580E-14,  3.513E+02,  2.483E+01, 255
2019-090T00:15:27.789,   1, 180,   1,   120,   4,          0,     41.948,  99289.098,    66.151,    -9.772,     1.183,   335.752, 2, 5.486E-04, -1.00,   2,  3.718E-03,  7.836E-05,  1.700E-13,  1.595E-14,  2.854E+02,  2.677E+01, 255
2019-090T00:17:27.790,   1, 180,   1,   120,   4,          0,     41.948,  99289.098,    66.143,    -9.771,     1.183,   334.542, 2, 5.486E-04, -1.00,   2,  3.816E-03,  8.059E-05,  2.580E-13,  1.642E-14,  4.220E+02,  2.686E+01, 255
2019-090T00:19:27.792,   1, 180,   1,   120,   4,          0,     41.948,  99289.098,    66.136,    -9.769,     1.183,   333.333, 2, 5.486E-04, -1.00,   2,  3.668E-03,  7.994E-05,  1.223E-13,  1.503E-14,  2.080E+02,  2.558E+01, 255
2019-090T00:21:27.793,   1, 180,   1,   120,   4,          0,     41.948,  99289.098,    66.128,    -9.768,     1.183,   332.124, 2, 5.486E-04, -1.00,   2,  3.662E-03,  8.143E-05,  1.322E-13,  1.529E-14,  2.253E+02,  2.606E+01, 255
2019-090T00:23:27.794,   1, 180,   1,   120,   4,          0,     41.948,  99289.098,    66.120,    -9.767,     1.183,   330.914, 2, 5.486E-04, -1.00,   2,  3.526E-03,  7.891E-05,  8.279E-14,  1.530E-14,  1.465E+02,  2.708E+01, 255
2019-090T00:25:27.796,   1, 180,   1,   120,   4,          0,     41.948,  99289.098,    66.112,    -9.765,     1.183,   329.705, 2, 5.486E-04, -1.00,   2,  3.530E-03,  7.767E-05,  1.979E-13,  1.556E-14,  3.499E+02,  2.751E+01, 255
2019-090T00:27:27.797,   1, 180,   1,   120,   4,          0,     41.948,  99289.098,    66.104,    -9.764,     1.183,   328.496, 2, 5.486E-04, -1.00,   2,  3.588E-03,  7.789E-05,  1.910E-13,  1.550E-14,  3.323E+02,  2.697E+01, 255
2019-090T00:29:27.799,   1, 180,   1,   120,   4,          0,     41.948,  99289.098,    66.097,    -9.763,     1.183,   327.286, 2, 5.486E-04, -1.00,   2,  3.739E-03,  7.931E-05,  2.363E-13,  1.601E-14,  3.944E+02,  2.672E+01, 255
2019-090T00:31:27.800,   1, 180,   1,   120,   4,          0,     41.948,  99289.098,    66.089,    -9.761,     1.183,   326.077, 2, 5.486E-04, -1.00,   2,  3.855E-03,  7.945E-05,  2.296E-13,  1.570E-14,  3.717E+02,  2.542E+01, 255
2019-090T00:33:27.801,   1, 180,   1,   120,   4,          0,     41.948,  99289.098,    66.081,    -9.760,     1.183,   324.868, 2, 5.486E-04, -1.00,   2,  4.006E-03,  8.159E-05,  1.069E-13,  1.552E-14,  1.666E+02,  2.418E+01, 255
2019-090T00:35:27.803,   1, 180,   1,   120,   4,          0,     41.948,  99289.098,    66.073,    -9.759,     1.183,   323.658, 2, 5.486E-04, -1.00,   2,  3.958E-03,  8.258E-05,  1.202E-13,  1.574E-14,  1.896E+02,  2.483E+01, 255
2019-090T00:37:27.804,   1, 180,   1,   120,   4,          0,     41.948,  99289.098,    66.065,    -9.757,     1.183,   322.449, 2, 5.486E-04, -1.00,   2,  4.032E-03,  8.378E-05,  1.032E-13,  1.526E-14,  1.597E+02,  2.362E+01, 255
2019-090T00:39:27.806,   1, 180,   1,   120,   4,          0,     41.948,  99289.098,    66.058,    -9.756,     1.183,   321.240, 2, 5.486E-04, -1.00,   2,  4.025E-03,  7.993E-05,  1.683E-13,  1.512E-14,  2.609E+02,  2.345E+01, 255
2019-090T00:41:27.807,   1, 180,   1,   120,   4,          0,     41.948,  99289.098,    66.050,    -9.755,     1.183,   320.030, 2, 5.486E-04, -1.00,   2,  3.418E-03,  7.606E-05,  1.933E-13,  1.517E-14,  3.530E+02,  2.770E+01, 255
2019-090T00:53:27.815,   1, 180,   1,   120,   4,          0,     41.948,  99289.098,    66.003,    -9.747,     1.182,   312.774, 2, 5.486E-04, -1.00,   2,  3.609E-03,  7.733E-05,  3.543E-13,  1.649E-14,  6.127E+02,  2.851E+01, 255
2019-090T00:55:27.817,   1, 180,   1,   120,   4,          0,     41.948,  99289.098,    65.995,    -9.746,     1.182,   311.565, 2, 5.486E-04, -1.00,   2,  4.061E-03,  8.326E-05,  2.420E-13,  1.593E-14,  3.719E+02,  2.449E+01, 255
2019-090T00:57:27.818,   1, 180,   1,   120,   4,          0,     41.948,  99289.098,    65.988,    -9.744,     1.182,   310.355, 2, 5.486E-04, -1.00,   2,  4.222E-03,  7.843E-05,  3.906E-13,  1.658E-14,  5.774E+02,  2.451E+01, 255
2019-090T00:59:27.820,   1, 180,   1,   120,   4,          0,     41.948,  99289.098,    65.980,    -9.743,     1.182,   309.146, 2, 5.486E-04, -1.00,   2,  4.465E-03,  8.081E-05,  4.972E-13,  1.692E-14,  6.951E+02,  2.365E+01, 255
2019-090T01:09:27.827,   1, 180,   1,   120,   4,          0,     41.948,  99289.098,    65.941,    -9.736,     1.182,   303.099, 2, 5.486E-04, -1.00,   2,  3.461E-03,  8.281E-05,  9.237E-14,  1.515E-14,  1.666E+02,  2.731E+01, 255
2019-090T01:11:27.828,   1, 180,   1,   120,   4,          0,     41.948,  99289.098,    65.933,    -9.735,     1.182,   301.890, 2, 5.486E-04, -1.00,   2,  3.408E-03,  7.903E-05,  1.804E-13,  1.538E-14,  3.304E+02,  2.817E+01, 255
2019-090T01:13:27.829,   1, 180,   1,   120,   4,          0,     41.948,  99289.098,    65.925,    -9.734,     1.182,   300.681, 2, 5.486E-04, -1.00,   2,  3.346E-03,  7.984E-05,  1.275E-13,  1.523E-14,  2.377E+02,  2.841E+01, 255
2019-090T01:15:27.831,   1, 180,   1,   120,   4,          0,     41.948,  99289.098,    65.917,    -9.732,     1.182,   299.471, 2, 5.486E-04, -1.00,   2,  3.439E-03,  8.212E-05,  1.667E-13,  1.527E-14,  3.025E+02,  2.771E+01, 255
2019-090T01:23:27.836,   1, 180,   1,   120,   4,          0,     41.948,  99289.098,    65.886,    -9.727,     1.182,   294.634, 2, 5.486E-04, -1.00,   2,  3.787E-03,  8.125E-05,  3.464E-13,  1.618E-14,  5.709E+02,  2.666E+01, 255
2019-090T01:25:27.838,   1, 180,   1,   120,   4,          0,     41.948,  99289.098,    65.878,    -9.726,     1.182,   293.425, 2, 5.486E-04, -1.00,   2,  3.563E-03,  7.641E-05,  1.947E-13,  1.602E-14,  3.411E+02,  2.807E+01, 255
2019-090T01:27:27.839,   1, 180,   1,   120,   4,          0,     41.948,  99289.098,    65.870,    -9.724,     1.182,   292.215, 2, 5.486E-04, -1.00,   2,  3.642E-03,  7.905E-05,  1.547E-13,  1.520E-14,  2.651E+02,  2.604E+01, 255
2019-090T01:29:27.841,   1, 180,   1,   120,   4,          0,     41.948,  99289.098,    65.863,    -9.723,     1.182,   291.006, 2, 5.486E-04, -1.00,   2,  3.307E-03,  7.931E-05,  8.725E-14,  1.515E-14,  1.647E+02,  2.859E+01, 255
2019-090T01:31:27.842,   1, 180,   1,   120,   4,          0,     41.948,  99289.098,    65.855,    -9.722,     1.182,   289.797, 2, 5.486E-04, -1.00,   2,  3.538E-03,  8.003E-05,  2.437E-13,  1.526E-14,  4.299E+02,  2.692E+01, 255
2019-090T01:35:27.845,   1, 180,   1,   120,   4,          0,     41.948,  99289.098,    65.839,    -9.719,     1.182,   287.378, 2, 5.486E-04, -1.00,   2,  3.855E-03,  8.659E-05,  8.757E-14,  1.488E-14,  1.418E+02,  2.408E+01, 255
2019-090T01:37:27.846,   1, 180,   1,   120,   4,          0,     41.948,  99289.098,    65.831,    -9.718,     1.182,   286.168, 2, 5.486E-04, -1.00,   2,  4.241E-03,  9.142E-05,  9.726E-14,  1.483E-14,  1.431E+02,  2.183E+01, 255
2019-090T01:39:27.848,   1, 180,   1,   120,   4,          0,     41.948,  99289.098,    65.823,    -9.716,     1.182,   284.959, 2, 5.486E-04, -1.00,   2,  3.788E-03,  8.686E-05,  1.589E-13,  1.557E-14,  2.618E+02,  2.566E+01, 255
2019-090T01:41:27.849,   1, 180,   1,   120,   4,          0,     41.948,  99289.098,    65.816,    -9.715,     1.182,   283.750, 2, 5.486E-04, -1.00,   2,  3.961E-03,  8.893E-05,  2.395E-13,  1.592E-14,  3.775E+02,  2.508E+01, 255
2019-090T01:47:27.853,   1, 180,   1,   120,   4,          0,     41.948,  99289.098,    65.792,    -9.711,     1.182,   280.122, 2, 5.486E-04, -1.00,   2,  3.872E-03,  8.936E-05,  5.715E-14,  1.455E-14,  9.211E+01,  2.346E+01, 255
2019-090T01:49:27.855,   1, 180,   1,   120,   4,          0,     41.948,  99289.098,    65.784,    -9.710,     1.182,   278.912, 2, 5.486E-04, -1.00,   2,  3.694E-03,  8.344E-05,  2.343E-13,  1.554E-14,  3.960E+02,  2.625E+01, 255
2019-090T01:51:27.856,   1, 180,   1,   120,   4,          0,     41.948,  99289.098,    65.776,    -9.708,     1.182,   277.703, 2, 5.486E-04, -1.00,   2,  3.329E-03,  8.431E-05,  5.076E-14,  1.485E-14,  9.517E+01,  2.784E+01, 255
2019-090T03:17:27.916,   1, 180,   1,   120,   4,          0,     41.948,  99289.098,    65.438,    -9.651,     1.181,   225.701, 2, 5.486E-04, -1.00,   2,  3.357E-03,  7.859E-05,  1.088E-13,  1.541E-14,  2.024E+02,  2.866E+01, 255
2019-090T03:19:27.918,   1, 180,   1,   120,   4,          0,     41.948,  99289.098,    65.431,    -9.649,     1.181,   224.492, 2, 5.486E-04, -1.00,   2,  3.850E-03,  7.882E-05,  2.185E-13,  1.568E-14,  3.543E+02,  2.542E+01, 255
2019-090T03:21:27.919,   1, 180,   1,   120,   4,          0,     41.948,  99289.098,    65.423,    -9.648,     1.181,   223.282, 2, 5.486E-04, -1.00,   2,  3.849E-03,  7.988E-05,  1.098E-13,  1.541E-14,  1.780E+02,  2.499E+01, 255
2019-090T03:49:27.939,   1, 180,   1,   120,   4,          0,     41.948,  99289.098,    65.312,    -9.629,     1.180,   206.351, 2, 5.486E-04, -1.00,   2,  4.525E-03,  8.083E-05,  3.055E-13,  1.552E-14,  4.213E+02,  2.140E+01, 255
2019-090T03:51:27.940,   1, 180,   1,   120,   4,          0,     41.948,  99289.098,    65.304,    -9.628,     1.180,   205.142, 2, 5.486E-04, -1.00,   2,  4.612E-03,  8.103E-05,  3.737E-13,  1.651E-14,  5.057E+02,  2.235E+01, 255
2019-090T03:53:27.942,   1, 180,   1,   120,   4,          0,     41.948,  99289.098,    65.296,    -9.626,     1.180,   203.933, 2, 5.486E-04, -1.00,   2,  4.686E-03,  8.363E-05,  3.059E-13,  1.589E-14,  4.074E+02,  2.116E+01, 255
2019-090T03:55:27.943,   1, 180,   1,   120,   4,          0,     41.948,  99289.098,    65.289,    -9.625,     1.180,   202.723, 2, 5.486E-04, -1.00,   2,  4.186E-03,  7.774E-05,  2.337E-13,  1.586E-14,  3.485E+02,  2.364E+01, 255
2019-090T03:57:27.944,   1, 180,   1,   120,   4,          0,     41.948,  99289.098,    65.281,    -9.624,     1.180,   201.514, 2, 5.486E-04, -1.00,   2,  4.790E-03,  8.068E-05,  2.785E-13,  1.580E-14,  3.629E+02,  2.059E+01, 255
2019-090T03:59:27.946,   1, 180,   1,   120,   4,          0,     41.948,  99289.098,    65.273,    -9.622,     1.180,   200.305, 2, 5.486E-04, -1.00,   2,  3.918E-03,  7.926E-05,  2.292E-13,  1.530E-14,  3.651E+02,  2.438E+01, 255
2019-090T04:01:27.947,   1, 180,   1,   120,   4,          0,     41.948,  99289.098,    65.265,    -9.621,     1.180,   199.095, 2, 5.486E-04, -1.00,   2,  4.068E-03,  7.856E-05,  3.206E-13,  1.598E-14,  4.919E+02,  2.452E+01, 255
2019-090T04:03:27.949,   1, 180,   1,   120,   4,          0,     41.948,  99289.098,    65.257,    -9.620,     1.180,   197.886, 2, 5.486E-04, -1.00,   2,  4.826E-03,  7.979E-05,  4.877E-13,  1.682E-14,  6.308E+02,  2.175E+01, 255
2019-090T04:05:27.950,   1, 180,   1,   120,   4,          0,     41.948,  99289.098,    65.249,    -9.618,     1.180,   196.677, 2, 5.486E-04, -1.00,   2,  5.852E-03,  8.089E-05,  6.392E-13,  1.691E-14,  6.818E+02,  1.803E+01, 255
2019-090T04:07:27.951,   1, 180,   1,   120,   4,          0,     41.948,  99289.098,    65.241,    -9.617,     1.180,   195.467, 2, 5.486E-04, -1.00,   2,  4.875E-03,  7.900E-05,  5.638E-13,  1.647E-14,  7.218E+02,  2.108E+01, 255
2019-090T04:09:27.953,   1, 180,   1,   120,   4,          0,     41.948,  99289.098,    65.233,    -9.616,     1.180,   194.258, 2, 5.486E-04, -1.00,   2,  5.172E-03,  8.207E-05,  5.292E-13,  1.646E-14,  6.386E+02,  1.986E+01, 255
2019-090T04:11:27.954,   1, 180,   1,   120,   4,          0,     41.948,  99289.098,    65.225,    -9.614,     1.180,   193.049, 2, 5.486E-04, -1.00,   2,  4.987E-03,  7.823E-05,  5.425E-13,  1.627E-14,  6.789E+02,  2.037E+01, 255
2019-090T04:13:27.956,   1, 180,   1,   120,   4,          0,     41.948,  99289.098,    65.217,    -9.613,     1.180,   191.839, 2, 5.486E-04, -1.00,   2,  6.000E-03,  8.266E-05,  7.511E-13,  1.701E-14,  7.813E+02,  1.770E+01, 255
2019-090T04:15:27.957,   1, 180,   1,   120,   4,          0,     41.948,  99289.098,    65.209,    -9.612,     1.180,   190.630, 2, 5.486E-04, -1.00,   2,  6.190E-03,  8.286E-05,  7.393E-13,  1.661E-14,  7.455E+02,  1.675E+01, 255
2019-090T04:17:27.958,   1, 180,   1,   120,   4,          0,     41.948,  99289.098,    65.202,    -9.610,     1.180,   189.420, 2, 5.486E-04, -1.00,   2,  5.794E-03,  8.394E-05,  7.228E-13,  1.671E-14,  7.786E+02,  1.800E+01, 255
2019-090T04:19:27.960,   1, 180,   1,   120,   4,          0,     41.948,  99289.098,    65.194,    -9.609,     1.180,   188.211, 2, 5.486E-04, -1.00,   2,  7.941E-03,  8.639E-05,  1.067E-12,  1.689E-14,  8.384E+02,  1.327E+01, 255
2019-090T04:23:27.963,   1, 180,   1,   120,   4,          0,     41.948,  99289.098,    65.178,    -9.606,     1.180,   185.792, 2, 5.486E-04, -1.00,   2,  1.217E-02,  9.498E-05,  1.635E-12,  1.765E-14,  8.390E+02,  9.053E+00, 255
2019-090T04:25:27.964,   1, 180,   1,   120,   4,          0,     41.948,  99289.098,    65.170,    -9.605,     1.180,   184.583, 2, 5.486E-04, -1.00,   2,  1.092E-02,  9.435E-05,  1.824E-12,  1.806E-14,  1.042E+03,  1.032E+01, 255
2019-090T04:27:27.965,   1, 180,   1,   120,   4,          0,     41.948,  99289.098,    65.162,    -9.603,     1.180,   183.374, 2, 5.486E-04, -1.00,   2,  1.352E-02,  9.698E-05,  2.746E-12,  1.882E-14,  1.268E+03,  8.691E+00, 255
2019-090T04:29:27.967,   1, 180,   1,   120,   4,          0,     41.948,  99289.098,    65.154,    -9.602,     1.180,   182.164, 2, 5.486E-04, -1.00,   2,  1.942E-02,  1.092E-04,  4.194E-12,  2.041E-14,  1.348E+03,  6.561E+00, 255
2019-090T04:31:27.968,   1, 180,   1,   120,   4,          0,     41.948,  99289.098,    65.146,    -9.601,     1.180,   180.955, 2, 5.486E-04, -1.00,   2,  2.565E-02,  1.221E-04,  5.199E-12,  2.076E-14,  1.265E+03,  5.051E+00, 255
2019-090T04:33:27.970,   1, 180,   1,   120,   4,          0,     41.948,  99289.098,    65.138,    -9.599,     1.180,   179.746, 2, 5.486E-04, -1.00,   2,  2.086E-02,  1.154E-04,  4.431E-12,  2.034E-14,  1.326E+03,  6.087E+00, 255
2019-090T04:35:27.971,   1, 180,   1,   120,   4,          0,     41.948,  99289.098,    65.130,    -9.598,     1.179,   178.536, 2, 5.486E-04, -1.00,   2,  1.454E-02,  1.009E-04,  3.412E-12,  2.009E-14,  1.464E+03,  8.621E+00, 255
2019-090T04:37:27.972,   1, 180,   1,   120,   4,          0,     41.948,  99289.098,    65.122,    -9.597,     1.179,   177.327, 2, 5.486E-04, -1.00,   2,  1.053E-02,  9.413E-05,  2.518E-12,  2.029E-14,  1.493E+03,  1.203E+01, 255
2019-090T04:39:27.974,   1, 180,   1,   120,   4,          0,     41.948,  99289.098,    65.114,    -9.595,     1.179,   176.118, 2, 5.486E-04, -1.00,   3,  1.206E-02,  9.596E-05,  2.839E-12,  2.281E-14,  1.469E+03,  1.181E+01, 255
2019-090T04:41:27.975,   1, 180,   1,   120,   4,          0,     41.948,  99289.098,    65.106,    -9.594,     1.179,   174.908, 2, 5.486E-04, -1.00,   4,  1.648E-02,  1.043E-04,  3.828E-12,  2.334E-14,  1.450E+03,  8.840E+00, 255
2019-090T04:43:27.977,   1, 180,   1,   120,   4,          0,     41.948,  99289.098,    65.099,    -9.593,     1.179,   173.699, 2, 5.486E-04, -1.00,   6,  1.890E-02,  1.127E-04,  4.359E-12,  2.391E-14,  1.440E+03,  7.897E+00, 255
2019-090T04:45:27.978,   1, 180,   1,   120,   4,          0,     41.948,  99289.098,    65.091,    -9.591,     1.179,   172.490, 2, 5.486E-04, -1.00,   4,  1.981E-02,  1.108E-04,  4.557E-12,  2.358E-14,  1.436E+03,  7.431E+00, 255
2019-090T04:47:27.979,   1, 180,   1,   120,   4,          0,     41.948,  99289.098,    65.083,    -9.590,     1.179,   171.280, 2, 5.486E-04, -1.00,   6,  2.272E-02,  1.211E-04,  5.230E-12,  2.698E-14,  1.436E+03,  7.410E+00, 255
2019-090T04:49:27.981,   1, 180,   1,   120,   4,          0,     41.948,  99289.098,    65.075,    -9.588,     1.179,   170.071, 2, 5.486E-04, -1.00,   6,  3.499E-02,  1.438E-04,  6.950E-12,  2.609E-14,  1.240E+03,  4.653E+00, 255
2019-090T04:51:27.982,   1, 180,   1,   120,   4,          0,     41.948,  99289.098,    65.067,    -9.587,     1.179,   168.861, 2, 5.486E-04, -1.00,   6,  5.108E-02,  1.754E-04,  8.718E-12,  2.626E-14,  1.065E+03,  3.209E+00, 255
2019-090T04:53:27.984,   1, 180,   1,   120,   4,          0,     41.948,  99289.098,    65.059,    -9.586,     1.179,   167.652, 2, 5.486E-04, -1.00,   3,  5.871E-02,  1.810E-04,  9.338E-12,  2.634E-14,  9.928E+02,  2.800E+00, 255
2019-090T04:55:27.985,   1, 180,   1,   120,   4,          0,     41.948,  99289.098,    65.051,    -9.584,     1.179,   166.443, 2, 5.486E-04, -1.00,   6,  5.503E-02,  1.824E-04,  9.487E-12,  2.815E-14,  1.076E+03,  3.192E+00, 255
2019-090T04:57:27.986,   1, 180,   1,   120,   4,          0,     41.948,  99289.098,    65.043,    -9.583,     1.179,   165.233, 2, 5.486E-04, -1.00,   6,  5.473E-02,  1.834E-04,  9.487E-12,  2.749E-14,  1.082E+03,  3.135E+00, 255
2019-090T04:59:27.988,   1, 180,   1,   120,   4,          0,     41.948,  99289.098,    65.035,    -9.582,     1.179,   164.024, 2, 5.486E-04, -1.00,  12,  5.036E-02,  1.804E-04,  9.162E-12,  2.829E-14,  1.136E+03,  3.506E+00, 255
2019-090T05:01:27.989,   1, 180,   1,   120,   4,          0,     41.948,  99289.098,    65.027,    -9.580,     1.179,   162.815, 2, 5.486E-04, -1.00,  12,  3.131E-02,  1.411E-04,  6.727E-12,  2.599E-14,  1.341E+03,  5.180E+00, 255
2019-090T05:03:27.991,   1, 180,   1,   120,   4,          0,     41.948,  99289.098,    65.019,    -9.579,     1.179,   161.605, 2, 5.486E-04, -1.00,   3,  1.507E-02,  1.259E-04,  3.677E-12,  2.787E-14,  1.524E+03,  1.155E+01, 255
2019-090T05:05:27.992,   1, 180,   1,   120,   4,          0,     41.948,  99289.098,    65.011,    -9.578,     1.179,   160.396, 2, 5.486E-04, -1.00,   4,  1.411E-02,  1.010E-04,  3.378E-12,  2.299E-14,  1.494E+03,  1.017E+01, 255
2019-090T05:07:27.993,   1, 180,   1,   120,   4,          0,     41.948,  99289.098,    65.003,    -9.576,     1.179,   159.187, 2, 5.486E-04, -1.00,   4,  1.330E-02,  9.866E-05,  3.292E-12,  2.307E-14,  1.545E+03,  1.083E+01, 255
2019-090T05:09:27.995,   1, 180,   1,   120,   4,          0,     41.948,  99289.098,    64.995,    -9.575,     1.179,   157.977, 2, 5.486E-04, -1.00,   4,  1.323E-02,  1.003E-04,  3.221E-12,  2.291E-14,  1.520E+03,  1.081E+01, 255
2019-090T05:11:27.996,   1, 180,   1,   120,   4,          0,     41.948,  99289.098,    64.987,    -9.573,     1.179,   156.768, 2, 5.486E-04, -1.00,   4,  1.207E-02,  9.455E-05,  3.141E-12,  2.295E-14,  1.625E+03,  1.187E+01, 255
2019-090T05:13:27.998,   1, 180,   1,   120,   4,          0,     41.948,  99289.098,    64.979,    -9.572,     1.179,   155.559, 2, 5.486E-04, -1.00,   6,  1.349E-02,  1.066E-04,  3.894E-12,  2.488E-14,  1.802E+03,  1.152E+01, 255
2019-090T05:15:27.999,   1, 180,   1,   120,   4,          0,     41.948,  99289.098,    64.971,    -9.571,     1.179,   154.349, 2, 5.486E-04, -1.00,   6,  1.416E-02,  1.046E-04,  4.556E-12,  2.621E-14,  2.009E+03,  1.156E+01, 255
2019-090T05:17:28.000,   1, 180,   1,   120,   4,          0,     41.948,  99289.098,    64.964,    -9.569,     1.179,   153.140, 2, 5.486E-04, -1.00,   4,  1.152E-02,  9.533E-05,  3.062E-12,  2.289E-14,  1.659E+03,  1.240E+01, 255
2019-090T05:19:28.002,   1, 180,   1,   120,   4,          0,     41.948,  99289.098,    64.956,    -9.568,     1.179,   151.930, 2, 5.486E-04, -1.00,   4,  1.195E-02,  9.712E-05,  3.166E-12,  2.311E-14,  1.654E+03,  1.207E+01, 255
2019-090T05:21:28.003,   1, 180,   1,   120,   4,          0,     41.948,  99289.098,    64.948,    -9.567,     1.179,   150.721, 2, 5.486E-04, -1.00,   3,  1.279E-02,  9.654E-05,  3.288E-12,  2.274E-14,  1.605E+03,  1.110E+01, 255
2019-090T05:23:28.005,   1, 180,   1,   120,   4,          0,     41.948,  99289.098,    64.940,    -9.565,     1.179,   149.512, 2, 5.486E-04, -1.00,   4,  1.827E-02,  1.090E-04,  4.708E-12,  2.369E-14,  1.608E+03,  8.093E+00, 255
2019-090T05:25:28.006,   1, 180,   1,   120,   4,          0,     41.948,  99289.098,    64.932,    -9.564,     1.179,   148.302, 2, 5.486E-04, -1.00,   6,  2.330E-02,  1.246E-04,  5.971E-12,  2.963E-14,  1.600E+03,  7.937E+00, 255
2019-090T05:27:28.007,   1, 180,   1,   120,   4,          0,     41.948,  99289.098,    64.924,    -9.563,     1.179,   147.093, 2, 5.486E-04, -1.00,   6,  2.600E-02,  1.286E-04,  6.434E-12,  2.657E-14,  1.545E+03,  6.378E+00, 255
2019-090T05:29:28.009,   1, 180,   1,   120,   4,          0,     41.948,  99289.098,    64.916,    -9.561,     1.179,   145.884, 2, 5.486E-04, -1.00,  24,  2.892E-02,  1.415E-04,  6.680E-12,  2.766E-14,  1.442E+03,  5.970E+00, 255
2019-090T05:31:28.010,   1, 180,   1,   120,   4,          0,     41.948,  99289.098,    64.908,    -9.560,     1.179,   144.674, 2, 5.486E-04, -1.00,   6,  5.845E-02,  2.062E-04,  9.254E-12,  2.798E-14,  9.882E+02,  2.988E+00, 255
2019-090T05:33:28.012,   1, 180,   1,   120,   4,          0,     41.948,  99289.098,    64.900,    -9.558,     1.179,   143.465, 2, 5.486E-04, -1.00,  24,  1.358E-01,  3.922E-04,  1.164E-11,  3.024E-14,  5.349E+02,  1.390E+00, 255
2019-090T05:35:28.013,   1, 180,   1,   120,   4,          0,     41.948,  99289.098,    64.892,    -9.557,     1.179,   142.256, 2, 5.486E-04, -1.00,   4,  4.366E-02,  1.730E-04,  7.417E-12,  2.688E-14,  1.060E+03,  3.843E+00, 255
2019-090T05:37:28.014,   1, 180,   1,   120,   4,          0,     41.948,  99289.098,    64.884,    -9.556,     1.179,   141.046, 2, 5.486E-04, -1.00,   2,  2.902E-02,  1.240E-04,  7.632E-12,  2.240E-14,  1.642E+03,  4.819E+00, 255
2019-090T05:39:28.016,   1, 180,   1,   120,   4,          0,     41.948,  99289.098,    64.876,    -9.554,     1.179,   139.837, 2, 5.486E-04, -1.00,   2,  3.019E-02,  1.279E-04,  7.011E-12,  2.202E-14,  1.449E+03,  4.552E+00, 255
2019-090T05:41:28.017,   1, 180,   1,   120,   4,          0,     41.948,  99289.098,    64.868,    -9.553,     1.179,   138.628, 2, 5.486E-04, -1.00,   2,  3.207E-02,  1.319E-04,  7.264E-12,  2.238E-14,  1.414E+03,  4.357E+00, 255
2019-090T05:43:28.019,   1, 180,   1,   120,   4,          0,     41.948,  99289.098,    64.860,    -9.552,     1.179,   137.418, 2, 5.486E-04, -1.00,   4,  3.198E-02,  1.326E-04,  7.308E-12,  2.566E-14,  1.426E+03,  5.008E+00, 255
2019-090T05:45:28.020,   1, 180,   1,   120,   4,          0,     41.948,  99289.098,    64.852,    -9.550,     1.179,   136.209, 2, 5.486E-04, -1.00,  24,  2.551E-02,  1.347E-04,  5.869E-12,  2.778E-14,  1.436E+03,  6.797E+00, 255
2019-090T05:47:28.021,   1, 180,   1,   120,   4,          0,     41.948,  99289.098,    64.844,    -9.549,     1.179,   134.999, 2, 5.486E-04, -1.00,  24,  2.607E-02,  1.341E-04,  6.007E-12,  2.738E-14,  1.438E+03,  6.554E+00, 255